This demonstration page uses our WeatherBlox Daily Observations layout. Learn more.

Left ArrowRight Arrow

Hourly Observations for May 13, 2020

Temp ( °F °C ) Dew Point ( °F °C ) Humidity (%) Winds ( mph kmh ) Pressure ( in mb ) Visibility ( mi km ) Precip ( " mm )
12:53 am 00:53 Cloudy 54 12.2 52 11.1 93 93 SE 3 6 29.93 1014 10 16 0.00 0.00
1:53 am 01:53 Cloudy 55 12.8 52 11.1 90 90 S 5 7 29.94 1014 10 16 0.00 0.00
2:53 am 02:53 Cloudy 56 13.3 49 9.4 77 77 SSW 3 6 29.95 1014 10 16 0.00 0.00
3:53 am 03:53 Cloudy 55 12.8 48 8.9 77 77 SSW 6 9 29.96 1015 10 16 0.00 0.00
4:53 am 04:53 Cloudy 55 12.8 47 8.3 74 74 S 10 17 29.96 1014 10 16 0.00 0.00
5:53 am 05:53 Cloudy 55 12.8 47 8.3 74 74 S 9 15 29.97 1015 10 16 0.00 0.00
6:53 am 06:53 Mostly Cloudy 54 12.2 47 8.3 77 77 S 9 15 29.98 1015 10 16 0.00 0.00
7:53 am 07:53 Cloudy 55 12.8 48 8.9 77 77 S 6 9 29.99 1016 10 16 0.00 0.00
8:53 am 08:53 Cloudy 56 13.3 48 8.9 75 75 SSW 7 11 29.99 1016 10 16 0.00 0.00
9:53 am 09:53 Cloudy 57 13.9 47 8.3 69 69 SSW 10 17 30.00 1016 10 16 0.00 0.00
10:53 am 10:53 Cloudy 59 15 48 8.9 67 67 S 8 13 30.00 1016 10 16 0.00 0.00
11:53 am 11:53 Cloudy 60 15.6 46 7.8 60 60 S 14 22 29.99 1016 10 16 0.00 0.00
12:53 pm 12:53 Cloudy 61 16.1 45 7.2 56 56 S 10 17 29.98 1015 10 16 0.00 0.00
1:53 pm 13:53 Cloudy 60 15.6 46 7.8 60 60 SSE 16 26 29.98 1015 10 16 0.00 0.00
2:53 pm 14:53 Cloudy 61 16.1 46 7.8 58 58 S 15 24 29.98 1015 10 16 0.00 0.00
3:53 pm 15:53 Cloudy 62 16.7 47 8.3 58 58 S 16 26 29.97 1015 10 16 0.00 0.00
4:53 pm 16:53 Cloudy with Light Rain 58 14.4 51 10.6 78 78 SSW 9 15 29.98 1015 10 16 0.01 0.25
5:53 pm 17:53 Cloudy 58 14.4 54 12.2 87 87 WSW 3 6 29.98 1015 10 16 0.04 1.02
6:43 pm 18:43 Cloudy with Light Rain 57 13.9 54 12.2 90 90 W 3 6 29.98 1015 2 3 0.03 0.76
6:53 pm 18:53 Cloudy with Light Rain 57 13.9 54 12.2 90 90 NW 3 6 29.97 1015 8 13 0.04 1.02
7:00 pm 19:00 Cloudy 58 14.4 54 12.2 87 87 Calm 29.98 1015 10 16 0.00 0.00
7:53 pm 19:53 Cloudy 57 13.9 55 12.8 93 93 WNW 5 7 29.98 1015 10 16 0.00 0.00
8:53 pm 20:53 Cloudy with Light Rain 57 13.9 54 12.2 90 90 E 3 6 29.97 1015 10 16 0.01 0.25
9:13 pm 21:13 Cloudy 56 13.3 55 12.8 97 97 SE 6 9 30.00 1016 10 16 0.00 0.00
9:21 pm 21:21 Cloudy 56 13.3 55 12.8 97 97 SSE 7 11 30.00 1016 10 16 0.00 0.00
9:43 pm 21:43 Mostly Cloudy 55 12.8 52 11.1 90 90 SSE 7 11 30.00 1016 10 16 0.00 0.00
9:53 pm 21:53 Mostly Clear 55 12.8 52 11.1 90 90 SSE 6 9 30.00 1016 10 16 0.00 0.00
10:53 pm 22:53 Mostly Cloudy 54 12.2 51 10.6 90 90 Calm 30.01 1016 10 16 0.00 0.00
11:53 pm 23:53 Clear 54 12.2 52 11.1 93 93 N 5 7 30.01 1016 10 16 0.00 0.00

Powered by AerisWeather